Погода в Котельниково

Россия / Республика Крым     45°21′53″N   34°01′37″E
темп.,
°C
ветер,
м/с
пор.,
м/с
влажн.,
%
обл.,
%
осадки,
мм/ч
давл.,
гПа
погр.,
м
14 апреля, ср
ср1400:00+6зсз119048 0.0 102010
03:00+5з00921 0.0 101910
06:00+5всв33921 0.0 101832
09:00+10в346671 0.0 1017379
12:00+15ю2345100 0.0 10151183
15:00+16юз4446100 0.0 10141501
18:00+9ююз2383100 0.8 1014162
21:00+10юв3382100 1.1 101475
15 апреля, чт
чт1500:00+9юв238399 0.0 101344
03:00+8ююз3485100 0.2 101464
06:00+8ююз3993100 0.9 1013326
09:00+9юз6989100 1.6 1015665
12:00+10юз8107498 0.1 10161072
15:00+9зюз81078100 0.1 10171095
18:00+8зюз797797 0.1 1017955
21:00+7зюз4572100 0.1 1018559
16 апреля, пт
пт1600:00+7юз3568100 0.0 1017268
03:00+7юз4775100 0.0 1017282
06:00+7ююз487398 0.0 1017266
09:00+9юз576698 0.0 1018655
12:00+12юз785357 0.0 10181560
15:00+13юз895218 0.0 10181808
18:00+10зюз68680 0.0 1019999
21:00+6юз35915 0.0 102193
17 апреля, сб
сб1700:00+5ююз35960 0.0 102193
03:00+4ююз35924 0.0 102190
06:00+4ю23845 0.0 102222
09:00+11юз4654100 0.0 1020499
12:00+14юв114294 0.0 10221469
15:00+15всв323815 0.0 10201905
18:00+14всв5654100 0.0 1020495
21:00+8всв51070100 0.0 1020253
18 апреля, вс
вс1800:00+7всв476997 0.0 1020143
03:00+6всв596097 0.0 1019161
06:00+7всв7147098 0.0 1018336
09:00+11в91468100 0.0 1017561
12:00+16в785393 0.1 1016730
15:00+15всв81067100 0.1 1017757
18:00+15всв711700 0.0 1015533
21:00+10в5985100 0.0 1016210